(129304) = 1998 KO22 = 2003 EX39 = 2005 SL164

Discovered at Palomar on 2005-09-27 by NEAT.

Orbit

Orbit type: Main Belt

Note: WebGL enabled browser required.

epoch2023-09-13.0
epoch JD2460200.5
perihelion date2021-07-22.56494
perihelion JD2459418.06494
argument of perihelion (°)242.32706
ascending node (°)48.85377
inclination (°)18.71856
eccentricity0.2501812
perihelion distance (AU)2.3613500
Tisserand w.r.t. Jupiter3.1
ΔV w.r.t. Earth (km/sec)11.2
semimajor axis (AU)3.1492275
mean anomaly (°)137.98952
mean daily motion (°/day)0.17635910
aphelion distance (AU)3.937
period (years)5.59
P-vector [x]0.32603822
P-vector [y]-0.71417001
P-vector [z]-0.61940316
Q-vector [x]0.91394640
Q-vector [y]0.40561340
Q-vector [z]0.01340731
absolute magnitude14.73
phase slope0.15
uncertainty0
referenceMPEC 2024-C06
observations used784
oppositions19
arc length (days)9415
first opposition used1998
last opposition used2024
residual rms (arc-secs)0.74
perturbers coarse indicatorM-v
perturbers precise indicator003Ek
first observation date used1998-04-22.0
last observation date used2024-01-31.0
computer nameMPCLINUX
JD of orbit computation2456731.552399
perihelion JD uncertainty (days)1.4928E-04
argument of perihelion uncertainty (°)2.6872E-05
ascending node uncertainty (°)1.9048E-05
inclination uncertainty (°)9.2950E-06
eccentricity uncertainty 6.1426E-08
perihelion distance uncertainty (AU)1.9460E-07
Minimum Orbit Intersection Distances (in AU)
for orbit epoch: 2460200.5, reference: E2024-BE5
Mercury1.91612
Venus1.66644
Earth1.40866
Mars0.99168
Jupiter1.51405
Saturn5.37289
Uranus14.9383
Neptune26.2982

Observations

795 total observations over interval: 1998 04 22.34780 – 2024 01 31.372170
These data are available for download (format description).

Date (UT) J2000 RA J2000 Dec Magn Location Ref
1998 04 22.34780 15 13 59.86 -14 41 19.5 18.4   704 – Lincoln Laboratory ETS, New Mexico MPS 150778
1998 04 22.36702 15 13 58.92 -14 41 23.8 19.7   704 – Lincoln Laboratory ETS, New Mexico MPS 150778
1998 04 22.38632 15 13 57.68 -14 41 25.1 19.8   704 – Lincoln Laboratory ETS, New Mexico MPS 150778
1998 04 22.40554 15 13 56.84 -14 41 29.4 20.0   704 – Lincoln Laboratory ETS, New Mexico MPS 150778
1998 05 01.28166 15 05 45.94 -15 07 12.5 18.1   704 – Lincoln Laboratory ETS, New Mexico MPS 168173
1998 05 01.30057 15 05 44.75 -15 07 16.8 18.3   704 – Lincoln Laboratory ETS, New Mexico MPS 168173
1998 05 01.33841 15 05 42.51 -15 07 22.0 17.9   704 – Lincoln Laboratory ETS, New Mexico MPS 168173
1998 05 22.19454 14 44 41.96 -16 08 43.5 18.4   704 – Lincoln Laboratory ETS, New Mexico MPS 1488
1998 05 22.21408 14 44 40.71 -16 08 47.8 18.3   704 – Lincoln Laboratory ETS, New Mexico MPS 1488
1998 05 22.23373 14 44 39.72 -16 08 51.7 18.3   704 – Lincoln Laboratory ETS, New Mexico MPS 1488
1998 05 22.25332 14 44 38.49 -16 08 52.9 19.0   704 – Lincoln Laboratory ETS, New Mexico MPS 1488
1998 05 24.16170 14 42 50.41 -16 14 51.9 18.5   704 – Lincoln Laboratory ETS, New Mexico MPS 1488
1998 05 24.18132 14 42 49.27 -16 14 56.0 19.6   704 – Lincoln Laboratory ETS, New Mexico MPS 1488
1998 05 24.20104 14 42 48.15 -16 14 59.4 18.8   704 – Lincoln Laboratory ETS, New Mexico MPS 1488
1998 05 24.24040 14 42 45.67 -16 15 05.8 19.3   704 – Lincoln Laboratory ETS, New Mexico MPS 1488
1999 09 11.34329 00 51 17.23 -19 36 04.6 19.1   704 – Lincoln Laboratory ETS, New Mexico MPS 150778
1999 09 11.35776 00 51 16.44 -19 36 08.1 19.1   704 – Lincoln Laboratory ETS, New Mexico MPS 150778
1999 09 11.37209 00 51 15.76 -19 36 08.9 19.2   704 – Lincoln Laboratory ETS, New Mexico MPS 150778
1999 09 11.38658 00 51 14.99 -19 36 10.9 19.1   704 – Lincoln Laboratory ETS, New Mexico MPS 150778
1999 09 11.40071 00 51 14.24 -19 36 13.9 19.2   704 – Lincoln Laboratory ETS, New Mexico MPS 150778
1999 09 30.26218 00 33 52.96 -20 01 58.3 19.2   704 – Lincoln Laboratory ETS, New Mexico MPS 150778
1999 09 30.27555 00 33 52.19 -20 01 58.4 19.4   704 – Lincoln Laboratory ETS, New Mexico MPS 150778
1999 09 30.30224 00 33 50.57 -20 01 56.6 19.2   704 – Lincoln Laboratory ETS, New Mexico MPS 150778
2003 03 08.22464 12 10 51.74 +23 14 40.4 19.1 R 699 – Lowell Observatory-LONEOS MPS 78326
2003 03 08.23811 12 10 51.03 +23 14 43.7   699 – Lowell Observatory-LONEOS MPS 78326
2003 03 08.25159 12 10 50.50 +23 14 45.8   699 – Lowell Observatory-LONEOS MPS 78326
2003 03 08.26505 12 10 49.64 +23 14 51.1   699 – Lowell Observatory-LONEOS MPS 78326
2003 03 08.31016 12 10 47.53 +23 15 03.1 19.0   704 – Lincoln Laboratory ETS, New Mexico MPS 74472
2003 03 08.32346 12 10 46.94 +23 15 06.2 19.5   704 – Lincoln Laboratory ETS, New Mexico MPS 74472
2003 03 08.36358 12 10 44.95 +23 15 15.7 19.8   704 – Lincoln Laboratory ETS, New Mexico MPS 74472
2003 03 09.49613 12 09 49.42 +23 20 07.5 20.1   644 – Palomar Mountain/NEAT MPS 74472
2003 03 09.50692 12 09 48.88 +23 20 10.2 19.7   644 – Palomar Mountain/NEAT MPS 74472
2003 03 09.51738 12 09 48.36 +23 20 12.6 19.8   644 – Palomar Mountain/NEAT MPS 74472
2003 04 09.14305 11 43 54.80 +24 07 48.5 20.3   644 – Palomar Mountain/NEAT MPS 150778
2003 04 09.16394 11 43 53.86 +24 07 46.6 20.2   644 – Palomar Mountain/NEAT MPS 150778
2003 04 09.18479 11 43 52.89 +24 07 44.9 20.2   644 – Palomar Mountain/NEAT MPS 150778
2005 09 15.34075 02 39 38.41 +04 15 54.0 20.3 V 703 – Catalina Sky Survey MPS 150778
2005 09 15.34892 02 39 38.26 +04 15 53.5 19.3 V 703 – Catalina Sky Survey MPS 150778
2005 09 15.35712 02 39 38.05 +04 15 53.8 18.9 V 703 – Catalina Sky Survey MPS 150778
2005 09 15.36536 02 39 37.80 +04 15 54.4 19.7 V 703 – Catalina Sky Survey MPS 150778
2005 09 27.44811 02 33 23.18 +04 13 05.4 19.4 R 644 – Palomar Mountain/NEAT MPS 144339
2005 09 27.45635 02 33 22.84 +04 13 05.4 19.2 R 644 – Palomar Mountain/NEAT MPS 144339
2005 09 27.45910 02 33 22.74 +04 13 05.3 19.3 R 644 – Palomar Mountain/NEAT MPS 144339
2005 09 27.46815 02 33 22.38 +04 13 04.8 19.2 R 644 – Palomar Mountain/NEAT MPS 144339
2005 09 27.47127 02 33 22.24 +04 13 05.2 19.3 R 644 – Palomar Mountain/NEAT MPS 144339
2005 09 27.47916 02 33 21.93 +04 13 04.6 19.5 R 644 – Palomar Mountain/NEAT MPS 144339
2005 10 01.36960 02 30 41.79 +04 11 23.4 19.1 V 703 – Catalina Sky Survey MPS 144339
2005 10 01.37902 02 30 41.32 +04 11 22.3 18.8 V 703 – Catalina Sky Survey MPS 144339
2005 10 01.38844 02 30 40.93 +04 11 22.5 19.0 V 703 – Catalina Sky Survey MPS 144339
2005 10 01.39782 02 30 40.53 +04 11 22.4 19.1 V 703 – Catalina Sky Survey MPS 144339
2005 10 07.31429 02 26 05.67 +04 08 39.3 19.0 V 703 – Catalina Sky Survey MPS 146196
2005 10 07.32204 02 26 05.37 +04 08 39.2 19.0 R 699 – Lowell Observatory-LONEOS MPS 146196
2005 10 07.32253 02 26 05.35 +04 08 38.9 19.2 V 703 – Catalina Sky Survey MPS 146196
2005 10 07.33091 02 26 04.88 +04 08 38.7 18.7 V 703 – Catalina Sky Survey MPS 146196
2005 10 07.33920 02 26 04.41 +04 08 37.5 18.9 V 703 – Catalina Sky Survey MPS 146196
2005 10 07.35121 02 26 03.90 +04 08 38.7   699 – Lowell Observatory-LONEOS MPS 146196
2005 10 07.41156 02 26 00.78 +04 08 36.4   699 – Lowell Observatory-LONEOS MPS 146196
2005 10 07.44085 02 25 59.24 +04 08 36.0   699 – Lowell Observatory-LONEOS MPS 146196
2005 10 10.34008 02 23 32.91 +04 07 21.7 18.8   704 – Lincoln Laboratory ETS, New Mexico MPS 150778
2005 10 10.36246 02 23 31.72 +04 07 21.5 19.4   704 – Lincoln Laboratory ETS, New Mexico MPS 150778
2005 10 10.37347 02 23 31.19 +04 07 20.7 18.9   704 – Lincoln Laboratory ETS, New Mexico MPS 150778
2005 10 21.36951 02 13 30.32 +04 04 47.3 19.2 R 644 – Palomar Mountain/NEAT MPS 147582
2005 10 21.38356 02 13 29.49 +04 04 47.3 18.8 R 644 – Palomar Mountain/NEAT MPS 147582
2005 10 21.39923 02 13 28.59 +04 04 47.1 18.5 R 644 – Palomar Mountain/NEAT MPS 147582
2005 10 22.39056 02 12 32.40 +04 04 48.4 19.1 V 703 – Catalina Sky Survey MPS 147582
2005 10 22.39727 02 12 32.00 +04 04 48.3 19.2 V 703 – Catalina Sky Survey MPS 147582
2005 10 22.40399 02 12 31.53 +04 04 48.3 18.6 V 703 – Catalina Sky Survey MPS 147582
2005 10 22.41069 02 12 31.21 +04 04 47.8 18.4 V 703 – Catalina Sky Survey MPS 147582
2005 10 28.29279 02 06 57.24 +04 06 02.1 19.0 V 703 – Catalina Sky Survey MPS 147582
2005 10 28.29660 02 06 56.98 +04 06 02.9 19.2 V 703 – Catalina Sky Survey MPS 147582
2005 10 28.30043 02 06 56.77 +04 06 02.8 18.8 V 703 – Catalina Sky Survey MPS 147582
2005 10 28.30425 02 06 56.52 +04 06 03.0 19.0 V 703 – Catalina Sky Survey MPS 147582
2005 10 30.30836 02 05 03.75 +04 06 58.6 18.5 R 699 – Lowell Observatory-LONEOS MPS 147582
2005 10 30.33479 02 05 02.26 +04 07 00.4   699 – Lowell Observatory-LONEOS MPS 147582
2005 10 30.36120 02 05 00.76 +04 06 59.9   699 – Lowell Observatory-LONEOS MPS 147582
2005 10 30.40696 02 04 58.09 +04 07 02.6   699 – Lowell Observatory-LONEOS MPS 147582
2005 11 03.26061 02 01 25.46 +04 09 42.1 19.0 V 703 – Catalina Sky Survey MPS 147582
2005 11 03.26660 02 01 25.14 +04 09 42.3 18.8 V 703 – Catalina Sky Survey MPS 147582
2005 11 03.27255 02 01 24.81 +04 09 42.4 18.9 V 703 – Catalina Sky Survey MPS 147582
2005 11 03.27851 02 01 24.49 +04 09 43.2 19.0 V 703 – Catalina Sky Survey MPS 147582
2005 11 06.27742 01 58 44.09 +04 12 36.9 18.8 R 699 – Lowell Observatory-LONEOS MPS 149638
2005 11 06.29563 01 58 43.09 +04 12 38.0   699 – Lowell Observatory-LONEOS MPS 149638
2005 11 06.31386 01 58 42.04 +04 12 39.0   699 – Lowell Observatory-LONEOS MPS 149638
2005 11 06.33204 01 58 41.26 +04 12 41.2   699 – Lowell Observatory-LONEOS MPS 149638
2005 11 09.30964 01 56 07.90 +04 16 20.8 18.9 V 703 – Catalina Sky Survey MPS 149638
2005 11 09.32076 01 56 07.26 +04 16 21.6 19.0 V 703 – Catalina Sky Survey MPS 149638
2005 11 09.33185 01 56 06.72 +04 16 22.4 18.8 V 703 – Catalina Sky Survey MPS 149638
2005 11 09.34293 01 56 06.14 +04 16 23.7 18.1 V 703 – Catalina Sky Survey MPS 149638
2005 11 22.25428 01 46 35.32 +04 41 47.7 19.2 V 703 – Catalina Sky Survey MPS 152154
2005 11 22.26071 01 46 35.07 +04 41 48.5 19.9 V 703 – Catalina Sky Survey MPS 152154
